Location: Passau
(48.5830°N, 13.4830°E)
Time: 21:44:31
(UTC+02:00)

Vanguard 3 - Pass Details

Date: 27 May 2024
Orbit: 509 x 3231 km, 33.3° (Epoch: 16 June)

Event Time Altitude Azimuth Distance (km) Brightness Sun altitude
Rises 21:22:20 0° 254° (WSW) 4,225 11.3 -4.4°
Reaches altitude 10° 21:25:02 10° 245° (WSW) 3,570 10.8 -4.7°
Maximum altitude 21:33:34 35° 184° (S) 2,932 9.7 -5.8°
Drops below altitude 10° 21:46:53 10° 127° (SE) 5,586 10.7 -7.4°
Enters shadow 21:48:21 - 125° (SE) 5,936 10.9 -7.5°
Sets 21:52:26 0° 120° (ESE) 6,901 - -8.0°
